Location: ?????????
(38.5999°N, 22.7695°E)
Time: 17:38:39
(UTC+00:00)

Cosmos 1300 Rocket - Pass Details

Date: 23 May 2024
Orbit: 597 x 623 km, 82.5° (Epoch: 24 June)

Event Time Altitude Azimuth Distance (km) Brightness Sun altitude
Rises 01:14:05 0° 341° (NNW) 2,864 7.4 -18.8°
Reaches altitude 10° 01:16:29 10° 332° (NNW) 1,952 6.4 -18.5°
Maximum altitude 01:20:17 31° 270° (W) 1,053 4.4 -18.0°
Enters shadow 01:20:34 31° 261° (W) 1,059 4.3 -18.0°
